User: anonymous   Login
Location: Kruen
(47.5000°N, 11.5000°E)
Time: 18:17:23
(UTC+02:00)
Language:

N. Korean satellite - Orbit

View from above orbital plane
View from above orbital plane
View from above satellite
View from above satellite

Ground track
Ground track

The orbit data is extracted from the following two-line orbital elements,

1 39026U 12072A   22141.88405223  .00025754  00000-0  72743-3 0  9993
2 39026  97.2681 132.9264 0028663 252.9666 106.8438 15.35923076524847
Epoch (UTC): 21 May 2022 21:13:02
Eccentricity: 0.0028663
inclination: 97.2681°
perigee height: 438 km
apogee height: 478 km
right ascension of ascending node: 132.9264°
argument of perigee: 252.9666°
revolutions per day: 15.35923076
mean anomaly at epoch: 106.8438°
orbit number at epoch: 52484

The dashed part of the orbit path shows where the satellite is in the earth's shadow,  

DLR